TimeEDT,TemperatureF,Dew PointF,Humidity,Sea Level PressureIn,VisibilityMPH,Wind Direction,Wind SpeedMPH,Gust SpeedMPH,PrecipitationIn,Events,Conditions,WindDirDegrees,DateUTC
12:07 AM,77.0,71.6,83,29.91,10.0,Calm,Calm,-,N/A,,Clear,0,2013-08-28 04:07:00
12:27 AM,77.0,71.6,83,29.91,10.0,Calm,Calm,-,N/A,,Clear,0,2013-08-28 04:27:00
12:47 AM,77.0,71.6,83,29.91,7.0,Calm,Calm,-,N/A,,Clear,0,2013-08-28 04:47:00
1:07 AM,75.2,73.4,94,29.91,7.0,Calm,Calm,-,N/A,,Clear,0,2013-08-28 05:07:00
1:27 AM,77.0,71.6,83,29.90,7.0,Calm,Calm,-,N/A,,Clear,0,2013-08-28 05:27:00
1:47 AM,77.0,71.6,83,29.89,7.0,Calm,Calm,-,N/A,,Clear,0,2013-08-28 05:47:00
2:07 AM,77.0,71.6,83,29.89,7.0,Calm,Calm,-,N/A,,Clear,0,2013-08-28 06:07:00
2:28 AM,77.0,71.6,83,29.88,7.0,Calm,Calm,-,N/A,,Clear,0,2013-08-28 06:28:00
2:48 AM,77.0,71.6,83,29.88,7.0,West,3.5,-,N/A,,Clear,260,2013-08-28 06:48:00
3:08 AM,77.0,71.6,83,29.87,7.0,WSW,3.5,-,N/A,,Clear,240,2013-08-28 07:08:00
3:28 AM,77.0,71.6,83,29.87,10.0,Calm,Calm,-,N/A,,Clear,0,2013-08-28 07:28:00
3:48 AM,77.0,71.6,83,29.87,10.0,Calm,Calm,-,N/A,,Clear,0,2013-08-28 07:48:00
4:08 AM,77.0,71.6,83,29.87,7.0,Calm,Calm,-,N/A,,Clear,0,2013-08-28 08:08:00
4:28 AM,77.0,69.8,78,29.86,10.0,WNW,4.6,-,N/A,,Clear,290,2013-08-28 08:28:00
4:48 AM,77.0,69.8,78,29.86,10.0,NW,3.5,-,N/A,,Clear,310,2013-08-28 08:48:00
5:08 AM,77.0,69.8,78,29.86,10.0,Calm,Calm,-,N/A,,Clear,0,2013-08-28 09:08:00
5:28 AM,77.0,69.8,78,29.87,10.0,NW,4.6,-,N/A,,Clear,310,2013-08-28 09:28:00
5:48 AM,75.2,69.8,83,29.87,10.0,Calm,Calm,-,N/A,,Clear,0,2013-08-28 09:48:00
6:08 AM,75.2,69.8,83,29.87,10.0,Calm,Calm,-,N/A,,Clear,0,2013-08-28 10:08:00
6:28 AM,75.2,69.8,83,29.87,10.0,Calm,Calm,-,N/A,,Clear,0,2013-08-28 10:28:00
6:48 AM,75.2,69.8,83,29.88,10.0,Calm,Calm,-,N/A,,Clear,0,2013-08-28 10:48:00
7:08 AM,75.2,71.6,89,29.88,10.0,Calm,Calm,-,N/A,,Clear,0,2013-08-28 11:08:00
7:28 AM,77.0,71.6,83,29.89,10.0,WNW,3.5,-,N/A,,Clear,290,2013-08-28 11:28:00
7:48 AM,77.0,69.8,78,29.89,10.0,Calm,Calm,-,N/A,,Clear,0,2013-08-28 11:48:00
8:08 AM,77.0,69.8,78,29.89,10.0,WNW,4.6,-,N/A,,Clear,300,2013-08-28 12:08:00
8:28 AM,77.0,69.8,78,29.89,10.0,Calm,Calm,-,N/A,,Clear,0,2013-08-28 12:28:00
8:48 AM,77.0,69.8,78,29.89,10.0,West,3.5,-,N/A,Rain,Light Rain,280,2013-08-28 12:48:00
9:08 AM,77.0,69.8,78,29.90,10.0,Calm,Calm,-,N/A,Rain,Light Rain,0,2013-08-28 13:08:00
9:28 AM,77.0,71.6,83,29.90,7.0,Calm,Calm,-,N/A,,Light Drizzle,0,2013-08-28 13:28:00
9:48 AM,77.0,71.6,83,29.91,7.0,Calm,Calm,-,N/A,Rain,Light Rain,0,2013-08-28 13:48:00
10:08 AM,77.0,71.6,83,29.90,7.0,Calm,Calm,-,N/A,Rain,Light Rain,0,2013-08-28 14:08:00
10:28 AM,77.0,71.6,83,29.91,10.0,West,5.8,-,N/A,,Clear,260,2013-08-28 14:28:00
10:48 AM,77.0,71.6,83,29.90,10.0,West,3.5,-,N/A,,Clear,270,2013-08-28 14:48:00
11:08 AM,78.8,71.6,78,29.90,10.0,West,5.8,-,N/A,,Clear,260,2013-08-28 15:08:00
11:29 AM,78.8,71.6,78,29.90,10.0,West,9.2,-,N/A,,Clear,260,2013-08-28 15:29:00
11:49 AM,78.8,71.6,78,29.89,10.0,West,6.9,-,N/A,,Clear,280,2013-08-28 15:49:00
12:09 PM,80.6,71.6,74,29.89,10.0,WNW,5.8,-,N/A,,Clear,290,2013-08-28 16:09:00
12:29 PM,82.4,71.6,70,29.88,10.0,West,6.9,-,N/A,,Clear,270,2013-08-28 16:29:00
12:49 PM,82.4,71.6,70,29.87,10.0,West,5.8,-,N/A,,Clear,260,2013-08-28 16:49:00
1:09 PM,82.4,69.8,66,29.86,10.0,West,3.5,-,N/A,,Clear,280,2013-08-28 17:09:00
1:29 PM,82.4,69.8,66,29.86,10.0,West,3.5,-,N/A,,Clear,270,2013-08-28 17:29:00
1:49 PM,82.4,69.8,66,29.86,10.0,WSW,4.6,-,N/A,,Clear,240,2013-08-28 17:49:00
2:09 PM,80.6,68.0,65,29.85,10.0,Calm,Calm,-,N/A,,Scattered Clouds,0,2013-08-28 18:09:00
2:29 PM,80.6,69.8,70,29.85,10.0,WSW,6.9,-,N/A,,Mostly Cloudy,240,2013-08-28 18:29:00
2:49 PM,80.6,69.8,70,29.85,10.0,West,10.4,16.1,N/A,,Mostly Cloudy,270,2013-08-28 18:49:00
3:09 PM,80.6,69.8,70,29.85,10.0,West,9.2,-,N/A,,Scattered Clouds,260,2013-08-28 19:09:00
3:29 PM,80.6,69.8,70,29.84,10.0,West,6.9,-,N/A,,Clear,270,2013-08-28 19:29:00
3:49 PM,78.8,69.8,74,29.84,10.0,West,8.1,-,N/A,,Clear,260,2013-08-28 19:49:00
4:09 PM,78.8,69.8,74,29.83,10.0,West,9.2,-,N/A,,Clear,260,2013-08-28 20:09:00
4:29 PM,78.8,69.8,74,29.84,10.0,West,9.2,-,N/A,,Clear,270,2013-08-28 20:29:00
4:49 PM,78.8,68.0,69,29.83,10.0,West,6.9,-,N/A,,Clear,280,2013-08-28 20:49:00
5:09 PM,78.8,68.0,69,29.84,10.0,West,6.9,-,N/A,,Clear,280,2013-08-28 21:09:00
5:29 PM,78.8,68.0,69,29.84,10.0,WNW,6.9,-,N/A,,Clear,290,2013-08-28 21:29:00
5:49 PM,77.0,68.0,74,29.83,10.0,WNW,6.9,-,N/A,,Scattered Clouds,290,2013-08-28 21:49:00
6:09 PM,77.0,69.8,78,29.83,10.0,West,3.5,-,N/A,,Scattered Clouds,270,2013-08-28 22:09:00
6:29 PM,77.0,69.8,78,29.83,10.0,WSW,5.8,-,N/A,Thunderstorm,Scattered Clouds,240,2013-08-28 22:29:00
6:49 PM,77.0,71.6,83,29.83,10.0,WSW,4.6,-,N/A,,Scattered Clouds,240,2013-08-28 22:49:00
7:09 PM,77.0,71.6,83,29.84,10.0,WSW,4.6,-,N/A,,Scattered Clouds,250,2013-08-28 23:09:00
7:29 PM,77.0,71.6,83,29.84,10.0,SW,4.6,-,N/A,,Scattered Clouds,230,2013-08-28 23:29:00
7:49 PM,77.0,69.8,78,29.85,10.0,SW,5.8,-,N/A,Rain,Light Rain,230,2013-08-28 23:49:00
8:10 PM,73.4,71.6,94,29.86,7.0,SW,4.6,-,N/A,Rain,Rain,230,2013-08-29 00:10:00
8:30 PM,73.4,71.6,94,29.85,10.0,SW,4.6,-,N/A,,Light Drizzle,220,2013-08-29 00:30:00
8:50 PM,73.4,71.6,94,29.85,10.0,SSW,5.8,-,N/A,,Scattered Clouds,210,2013-08-29 00:50:00
9:10 PM,73.4,71.6,94,29.85,10.0,Calm,Calm,-,N/A,,Clear,0,2013-08-29 01:10:00
9:30 PM,73.4,71.6,94,29.86,10.0,Calm,Calm,-,N/A,,Scattered Clouds,0,2013-08-29 01:30:00
9:50 PM,73.4,71.6,94,29.86,10.0,Calm,Calm,-,N/A,,Scattered Clouds,0,2013-08-29 01:50:00
10:10 PM,73.4,71.6,94,29.85,10.0,Calm,Calm,-,N/A,,Clear,0,2013-08-29 02:10:00
10:30 PM,73.4,71.6,94,29.85,10.0,Calm,Calm,-,N/A,,Clear,0,2013-08-29 02:30:00
10:50 PM,73.4,71.6,94,29.84,7.0,Calm,Calm,-,N/A,,Clear,0,2013-08-29 02:50:00
11:10 PM,73.4,73.4,100,29.84,7.0,Calm,Calm,-,N/A,,Clear,0,2013-08-29 03:10:00
11:30 PM,71.6,71.6,100,29.84,7.0,Calm,Calm,-,N/A,,Scattered Clouds,0,2013-08-29 03:30:00
11:50 PM,71.6,71.6,100,29.84,7.0,Calm,Calm,-,N/A,,Mostly Cloudy,0,2013-08-29 03:50:00